QPF
0.00 0.00 0.00 0.00 0.00 0.00 0.00 0.00 0.00 0.00 0.00 0.00 0.00 0.00 0.00 0.00 0.00 0.00 0.00 0.00 0.00 0.00 0.00 0.00 0.00 0.00 0.00 0.00 0.00 0.00 0.00 0.00 0.00 0.00 0.00 0.00 0.00 0.00 0.00 0.04 0.07 0.04 0.03
0.00 0.00 0.00 0.00 0.00 0.00 0.00 0.00 0.00 0.00 0.00 0.00 0.00 0.00 0.00 0.00 0.00 0.00 0.00 0.00 0.00 0.00 0.00 0.00 0.00 0.00 0.00 0.00 0.00 0.00 0.00 0.00 0.00 0.00 0.00 0.00 0.00 0.02 0.05 0.02 0.16 0.17 0.16
0.00 0.00 0.00 0.00 0.00 0.00 0.00 0.00 0.00 0.00 0.00 0.00 0.00 0.00 0.00 0.00 0.00 0.00 0.00 0.00 0.00 0.00 0.00 0.00 0.00 0.00 0.00 0.00 0.00 0.00 0.00 0.00 0.00 0.00 0.00 0.00 0.00 0.01 0.02 0.06 0.15 0.11 0.12
0.00 0.00 0.00 0.00 0.00 0.00 0.00 0.00 0.00 0.00 0.00 0.00 0.00 0.00 0.00 0.00 0.00 0.00 0.00 0.00 0.00 0.00 0.00 0.00 0.00 0.00 0.00 0.00 0.00 0.00 0.00 0.00 0.00 0.00 0.00 0.00 0.00 0.01 0.02 0.09 0.14 0.07 0.10
0.00 0.00 0.00 0.00 0.00 0.00 0.00 0.00 0.00 0.00 0.00 0.00 0.00 0.00 0.00 0.00 0.00 0.00 0.00 0.00 0.00 0.00 0.00 0.00 0.00 0.00 0.00 0.00 0.00 0.00 0.00 0.00 0.00 0.00 0.00 0.00 0.00 0.01 0.04 0.08 0.08 0.07 0.12
0.00 0.00 0.00 0.00 0.00 0.00 0.00 0.00 0.00 0.00 0.00 0.00 0.00 0.00 0.00 0.00 0.00 0.00 0.00 0.00 0.00 0.00 0.00 0.01 0.01 0.01 0.00 0.00 0.00 0.00 0.00 0.00 0.00 0.00 0.00 0.00 0.00 0.00 0.01 0.03 0.08 0.12 0.12
0.00 0.00 0.00 0.00 0.00 0.00 0.00 0.00 0.00 0.00 0.00 0.00 0.00 0.00 0.00 0.00 0.00 0.00 0.00 0.00 0.00 0.00 0.01 0.04 0.03 0.03 0.04 0.03 0.02 0.01 0.00 0.00 0.00 0.00 0.00 0.00 0.00 0.00 0.00 0.01 0.04 0.09 0.12
0.00 0.00 0.00 0.00 0.00 0.00 0.00 0.00 0.00 0.00 0.00 0.00 0.00 0.00 0.00 0.00 0.00 0.00 0.00 0.01 0.01 0.00 0.00 0.00 0.00 0.00 0.01 0.02 0.02 0.01 0.00 0.00 0.00 0.00 0.00 0.00 0.00 0.00 0.00 0.00 0.01 0.05 0.11
0.00 0.00 0.00 0.00 0.00 0.00 0.00 0.00 0.00 0.00 0.00 0.00 0.00 0.00 0.00 0.00 0.00 0.00 0.00 0.00 0.00 0.00 0.00 0.00 0.00 0.00 0.00 0.00 0.00 0.00 0.00 0.00 0.00 0.00 0.00 0.00 0.00 0.00 0.00 0.00 0.00 0.03 0.07
0.00 0.00 0.00 0.00 0.00 0.00 0.00 0.00 0.00 0.00 0.00 0.00 0.00 0.00 0.00 0.00 0.00 0.00 0.00 0.00 0.00 0.00 0.00 0.00 0.00 0.00 0.00 0.00 0.00 0.00 0.00 0.00 0.00 0.00 0.00 0.00 0.01 0.00 0.00 0.00 0.00 0.01 0.03
0.00 0.00 0.00 0.00 0.00 0.00 0.00 0.00 0.00 0.00 0.00 0.00 0.00 0.00 0.00 0.00 0.00 0.00 0.00 0.00 0.00 0.00 0.00 0.00 0.00 0.00 0.00 0.00 0.00 0.00 0.00 0.00 0.00 0.00 0.00 0.01 0.02 0.00 0.00 0.00 0.00 0.00 0.02
0.00 0.00 0.00 0.00 0.00 0.00 0.00 0.00 0.00 0.00 0.00 0.00 0.00 0.00 0.00 0.00 0.00 0.00 0.00 0.00 0.00 0.00 0.00 0.00 0.00 0.00 0.00 0.00 0.00 0.00 0.00 0.00 0.00 0.00 0.00 0.01 0.01 0.00 0.00 0.00 0.00 0.00 0.01
0.00 0.00 0.00 0.00 0.00 0.00 0.00 0.00 0.00 0.00 0.00 0.00 0.00 0.00 0.00 0.00 0.00 0.00 0.00 0.00 0.00 0.00 0.00 0.00 0.00 0.00 0.00 0.00 0.00 0.00 0.00 0.00 0.00 0.00 0.00 0.00 0.00 0.00 0.00 0.00 0.00 0.00 0.01
0.00 0.00 0.00 0.00 0.00 0.00 0.00 0.00 0.00 0.00 0.00 0.00 0.00 0.00 0.00 0.00 0.00 0.00 0.00 0.00 0.00 0.00 0.00 0.00 0.00 0.00 0.00 0.00 0.00 0.00 0.00 0.00 0.00 0.00 0.01 0.02 0.01 0.00 0.00 0.00 0.00 0.00 0.01
0.00 0.00 0.00 0.00 0.00 0.00 0.00 0.00 0.00 0.00 0.00 0.00 0.00 0.00 0.00 0.00 0.00 0.00 0.00 0.00 0.00 0.00 0.00 0.00 0.00 0.01 0.00 0.00 0.00 0.00 0.00 0.00 0.00 0.00 0.01 0.02 0.00 0.00 0.00 0.00 0.00 0.00 0.01
0.00 0.00 0.00 0.00 0.00 0.00 0.00 0.00 0.00 0.00 0.00 0.00 0.00 0.00 0.00 0.00 0.00 0.00 0.00 0.00 0.00 0.00 0.00 0.00 0.00 0.00 0.00 0.00 0.00 0.00 0.00 0.00 0.00 0.00 0.00 0.03 0.01 0.00 0.00 0.00 0.00 0.00 0.00
0.00 0.00 0.00 0.00 0.00 0.00 0.00 0.00 0.00 0.00 0.00 0.00 0.00 0.00 0.00 0.00 0.00 0.00 0.00 0.00 0.00 0.02 0.02 0.05 0.04 0.04 0.02 0.00 0.00 0.00 0.01 0.01 0.01 0.01 0.00 0.02 0.00 0.00 0.00 0.00 0.00 0.00 0.00
0.00 0.00 0.00 0.00 0.00 0.00 0.00 0.00 0.00 0.00 0.00 0.00 0.00 0.00 0.00 0.00 0.00 0.00 0.00 0.00 0.01 0.05 0.06 0.07 0.03 0.02 0.03 0.02 0.01 0.02 0.04 0.06 0.02 0.02 0.00 0.00 0.00 0.00 0.00 0.00 0.00 0.00 0.00
0.00 0.00 0.00 0.00 0.00 0.00 0.00 0.00 0.00 0.00 0.00 0.00 0.00 0.00 0.00 0.00 0.00 0.00 0.00 0.01 0.03 0.05 0.07 0.08 0.04 0.03 0.04 0.03 0.04 0.03 0.05 0.03 0.01 0.02 0.01 0.01 0.00 0.00 0.00 0.01 0.01 0.00 0.00
0.00 0.00 0.00 0.00 0.00 0.00 0.00 0.00 0.00 0.00 0.00 0.00 0.00 0.00 0.00 0.00 0.00 0.00 0.01 0.03 0.04 0.05 0.05 0.03 0.02 0.05 0.07 0.06 0.06 0.04 0.04 0.03 0.02 0.00 0.01 0.00 0.00 0.00 0.00 0.00 0.02 0.00 0.00
0.00 0.00 0.00 0.00 0.00 0.00 0.00 0.00 0.00 0.00 0.00 0.00 0.00 0.00 0.00 0.00 0.00 0.01 0.03 0.04 0.05 0.02 0.03 0.03 0.05 0.08 0.09 0.10 0.08 0.05 0.05 0.06 0.05 0.01 0.01 0.00 0.00 0.00 0.00 0.02 0.08 0.06 0.01
0.00 0.00 0.00 0.00 0.00 0.00 0.00 0.00 0.00 0.00 0.00 0.00 0.00 0.00 0.00 0.00 0.00 0.01 0.04 0.06 0.05 0.07 0.04 0.02 0.02 0.02 0.02 0.05 0.05 0.07 0.06 0.06 0.05 0.02 0.00 0.00 0.01 0.00 0.00 0.01 0.07 0.05 0.01
0.00 0.00 0.00 0.00 0.00 0.00 0.00 0.00 0.00 0.00 0.00 0.00 0.00 0.00 0.00 0.00 0.00 0.00 0.02 0.04 0.08 0.07 0.04 0.03 0.03 0.02 0.05 0.08 0.07 0.09 0.08 0.04 0.04 0.03 0.01 0.03 0.04 0.02 0.03 0.05 0.05 0.02 0.01
0.00 0.00 0.00 0.00 0.00 0.00 0.00 0.00 0.00 0.00 0.00 0.00 0.00 0.00 0.00 0.00 0.01 0.03 0.06 0.06 0.04 0.03 0.04 0.07 0.08 0.10 0.09 0.06 0.07 0.03 0.13 0.11 0.09 0.05 0.04 0.04 0.10 0.12 0.13 0.11 0.04 0.02 0.01
0.00 0.00 0.00 0.00 0.00 0.00 0.00 0.00 0.00 0.00 0.00 0.00 0.00 0.00 0.01 0.03 0.02 0.02 0.03 0.01 0.03 0.05 0.08 0.06 0.08 0.10 0.06 0.07 0.06 0.08 0.12 0.20 0.09 0.09 0.04 0.03 0.16 0.19 0.19 0.13 0.08 0.04 0.00
0.00 0.00 0.00 0.00 0.00 0.00 0.00 0.00 0.00 0.00 0.00 0.00 0.00 0.01 0.06 0.05 0.04 0.01 0.03 0.03 0.06 0.05 0.03 0.02 0.04 0.05 0.10 0.14 0.17 0.10 0.05 0.16 0.11 0.06 0.10 0.18 0.16 0.15 0.18 0.16 0.14 0.08 0.01
MSLP
1005.74 1006.83 1007.46 1008.05 1008.71 1009.28 1009.69 1010.08 1010.62 1011.00 1011.33 1011.63 1011.88 1012.16 1012.46 1012.80 1013.06 1013.24 1013.39 1013.55 1013.69 1013.86 1013.98 1014.07 1014.11 1014.16 1014.25 1014.38 1014.35 1014.28 1014.30 1014.19 1014.26 1014.11 1014.03 1013.89 1013.73 1013.74 1013.75 1013.96 1014.15 1014.20 1014.63
1005.15 1006.72 1007.47 1007.91 1008.54 1009.08 1009.53 1009.94 1010.44 1011.09 1011.39 1011.69 1011.89 1012.16 1012.39 1012.69 1012.98 1013.19 1013.35 1013.46 1013.67 1013.74 1013.92 1014.00 1014.04 1014.14 1014.12 1014.17 1014.28 1014.29 1014.29 1014.29 1014.33 1014.32 1014.19 1013.93 1013.68 1013.73 1013.89 1014.05 1014.33 1014.40 1014.72
1005.31 1006.52 1007.46 1007.92 1008.43 1008.99 1009.42 1009.80 1010.26 1010.92 1011.30 1011.70 1011.77 1012.13 1012.38 1012.65 1012.96 1013.19 1013.30 1013.43 1013.57 1013.69 1013.77 1013.85 1013.83 1014.05 1014.11 1014.19 1014.19 1014.21 1014.21 1014.38 1014.28 1014.42 1014.11 1014.07 1013.69 1013.46 1013.64 1013.89 1014.25 1014.53 1014.96
1005.14 1006.34 1006.94 1007.78 1008.26 1008.67 1009.19 1009.60 1009.95 1010.56 1011.03 1011.56 1011.74 1012.05 1012.30 1012.59 1012.85 1013.11 1013.28 1013.34 1013.45 1013.55 1013.61 1013.63 1013.66 1013.78 1013.94 1014.03 1014.00 1014.10 1014.21 1014.23 1014.24 1014.28 1014.19 1013.72 1013.35 1012.87 1013.34 1013.59 1014.02 1014.47 1014.78
1004.98 1006.09 1006.59 1007.41 1007.96 1008.44 1008.88 1009.37 1009.82 1010.21 1010.58 1011.16 1011.65 1012.02 1012.24 1012.48 1012.77 1012.88 1013.09 1013.19 1013.25 1013.34 1013.37 1013.40 1013.38 1013.53 1013.68 1013.79 1013.87 1013.87 1013.98 1014.03 1014.05 1014.09 1013.87 1013.40 1013.06 1012.58 1013.12 1013.65 1013.84 1014.21 1014.71
1004.40 1005.58 1006.51 1007.25 1007.85 1008.27 1008.78 1009.23 1009.72 1010.18 1010.69 1011.17 1011.70 1011.92 1012.04 1012.22 1012.50 1012.69 1012.87 1012.97 1013.06 1013.08 1013.09 1013.11 1013.18 1013.27 1013.39 1013.48 1013.58 1013.66 1013.80 1013.96 1014.08 1013.80 1013.40 1013.05 1012.75 1012.93 1013.25 1013.76 1013.93 1014.19 1014.53
1003.56 1004.58 1006.16 1007.05 1007.60 1008.18 1008.62 1009.15 1009.64 1010.00 1010.57 1010.90 1011.40 1011.61 1011.68 1011.92 1012.22 1012.49 1012.70 1012.76 1012.91 1012.86 1012.85 1012.88 1013.01 1013.11 1013.26 1013.31 1013.44 1013.48 1013.66 1013.69 1013.74 1013.42 1012.96 1012.69 1012.57 1012.60 1013.15 1013.61 1013.95 1014.22 1014.46
1003.06 1004.05 1005.47 1006.58 1007.28 1007.98 1008.36 1008.81 1009.31 1009.55 1009.97 1010.31 1010.86 1011.20 1011.41 1011.61 1011.87 1012.14 1012.31 1012.41 1012.55 1012.62 1012.68 1012.71 1012.78 1012.95 1013.10 1013.13 1013.13 1013.25 1013.47 1013.49 1013.39 1013.13 1012.86 1012.47 1012.62 1012.59 1013.08 1013.61 1013.91 1014.20 1014.39
1002.60 1003.36 1004.95 1006.19 1007.15 1007.66 1008.08 1008.37 1008.77 1009.28 1009.54 1009.67 1010.29 1010.68 1010.87 1011.20 1011.48 1011.66 1011.89 1012.04 1012.12 1012.22 1012.37 1012.52 1012.65 1012.74 1012.85 1012.87 1012.95 1013.07 1013.22 1013.26 1013.35 1013.15 1012.75 1012.35 1012.49 1012.40 1012.79 1013.24 1013.79 1014.06 1014.28
1001.63 1002.27 1003.69 1005.10 1006.30 1007.27 1007.83 1008.14 1008.35 1008.64 1009.28 1009.44 1009.75 1010.05 1010.35 1010.81 1011.03 1011.11 1011.28 1011.50 1011.64 1011.86 1012.02 1012.16 1012.36 1012.47 1012.54 1012.60 1012.70 1012.79 1012.87 1012.91 1013.06 1012.87 1012.59 1012.31 1012.14 1012.26 1012.47 1012.94 1013.53 1013.90 1014.12
1000.63 1001.15 1002.29 1003.40 1004.87 1005.68 1007.00 1007.85 1008.23 1008.29 1008.69 1009.04 1009.45 1009.70 1009.96 1010.29 1010.24 1010.33 1010.39 1010.62 1011.04 1011.40 1011.59 1011.74 1011.84 1011.95 1012.05 1012.18 1012.24 1012.33 1012.42 1012.56 1012.66 1012.43 1012.20 1011.95 1012.18 1012.58 1012.81 1012.91 1013.08 1013.67 1013.85
1000.33 1000.38 1001.04 1002.18 1003.09 1004.27 1005.18 1006.51 1007.64 1007.86 1008.17 1008.40 1008.74 1009.01 1009.40 1009.59 1009.49 1009.58 1009.80 1010.07 1010.43 1010.71 1011.11 1011.18 1011.32 1011.51 1011.67 1011.69 1011.35 1011.47 1011.95 1012.05 1012.05 1011.80 1011.51 1011.57 1011.99 1012.37 1012.51 1012.69 1012.99 1013.33 1013.69
1000.08 999.93 1000.37 1001.23 1001.98 1003.01 1003.91 1005.22 1006.33 1006.95 1007.35 1007.77 1008.14 1008.34 1008.58 1008.68 1008.93 1009.07 1009.27 1009.53 1009.99 1010.43 1010.53 1010.43 1010.82 1011.16 1011.05 1011.06 1010.81 1010.77 1011.16 1011.16 1011.12 1011.06 1010.83 1010.98 1011.49 1011.93 1012.18 1012.49 1012.72 1013.07 1013.51
999.66 999.70 1000.00 1000.76 1001.38 1002.11 1002.92 1003.91 1005.31 1006.02 1006.53 1006.86 1007.14 1007.30 1007.51 1007.79 1008.09 1008.59 1009.05 1008.86 1009.33 1009.51 1009.82 1009.95 1010.20 1010.43 1010.63 1010.45 1010.40 1010.40 1010.63 1010.51 1010.54 1010.61 1010.35 1010.65 1011.20 1011.48 1011.78 1012.33 1012.52 1012.74 1013.19
999.38 999.49 999.70 1000.32 1000.87 1001.44 1002.10 1002.95 1004.13 1005.04 1005.62 1006.03 1006.32 1006.60 1006.76 1007.34 1007.78 1008.13 1008.59 1008.68 1008.63 1009.00 1009.14 1009.50 1009.61 1009.98 1010.27 1010.16 1010.22 1010.41 1010.59 1010.31 1010.11 1010.46 1010.90 1010.93 1011.12 1011.27 1011.56 1011.94 1012.29 1012.51 1012.87
998.92 999.16 999.40 999.70 1000.57 1001.12 1001.66 1002.31 1003.24 1004.13 1004.68 1005.35 1005.66 1006.07 1006.67 1007.20 1007.50 1007.74 1008.12 1008.36 1008.54 1008.74 1009.02 1009.20 1009.53 1009.89 1010.23 1010.21 1010.27 1010.23 1010.21 1010.06 1009.90 1010.21 1010.47 1010.87 1011.02 1011.23 1011.34 1011.71 1012.07 1012.28 1012.57
998.61 998.71 998.84 999.28 1000.34 1001.04 1001.61 1002.37 1002.98 1003.72 1004.26 1004.81 1005.38 1005.79 1006.44 1007.10 1007.45 1007.65 1007.91 1008.07 1008.36 1008.39 1008.73 1009.22 1009.65 1009.82 1009.97 1009.97 1009.91 1009.89 1009.82 1009.82 1009.88 1009.96 1010.18 1010.51 1010.86 1010.85 1011.05 1011.49 1011.72 1012.00 1012.25
998.14 998.19 998.44 998.67 999.99 1000.89 1001.65 1002.45 1003.04 1003.60 1004.10 1004.78 1005.23 1005.65 1006.04 1006.59 1007.03 1007.52 1007.78 1007.94 1007.96 1008.20 1008.83 1009.21 1009.40 1009.54 1009.58 1009.69 1009.80 1009.64 1009.58 1009.84 1009.81 1009.79 1010.04 1009.93 1010.37 1010.28 1010.76 1011.13 1011.26 1011.52 1011.85
997.39 997.71 998.14 998.63 999.81 1000.72 1001.61 1002.37 1003.06 1003.60 1004.14 1004.66 1005.14 1005.54 1005.88 1006.29 1006.72 1007.32 1007.56 1007.74 1007.75 1008.30 1008.65 1008.86 1009.18 1009.39 1009.56 1009.52 1009.55 1009.56 1009.64 1009.76 1009.70 1009.71 1009.97 1009.73 1009.75 1009.81 1010.23 1010.46 1010.88 1011.25 1011.47
997.05 997.63 998.19 998.68 999.61 1000.61 1001.44 1002.30 1003.02 1003.62 1004.20 1004.69 1004.97 1005.32 1005.59 1005.86 1006.19 1006.75 1007.19 1007.50 1007.84 1008.21 1008.53 1008.84 1009.12 1009.10 1009.23 1009.42 1009.39 1009.59 1009.72 1009.75 1009.65 1009.45 1009.46 1009.54 1009.39 1009.38 1009.54 1009.64 1010.47 1010.97 1011.22
997.43 997.75 998.31 998.88 999.60 1000.55 1001.36 1002.25 1003.09 1003.61 1004.30 1004.61 1004.76 1005.07 1005.35 1005.61 1005.99 1006.38 1006.92 1007.29 1007.67 1008.01 1008.16 1008.40 1008.82 1008.91 1009.12 1009.08 1009.42 1009.77 1009.70 1009.61 1009.68 1009.34 1009.17 1008.99 1009.04 1009.13 1009.18 1009.79 1010.44 1010.81 1010.86
997.63 998.09 998.85 999.45 999.93 1000.60 1001.31 1002.17 1002.87 1003.43 1003.96 1004.24 1004.47 1004.67 1005.01 1005.44 1005.84 1006.18 1006.59 1007.04 1007.49 1007.76 1008.04 1008.23 1008.43 1008.61 1008.82 1008.95 1009.41 1009.69 1009.64 1009.66 1009.39 1009.03 1008.75 1008.58 1008.78 1008.91 1009.07 1009.18 1009.95 1010.20 1010.56
997.81 998.53 999.22 999.85 1000.25 1000.82 1001.54 1002.22 1002.62 1003.09 1003.38 1003.89 1004.12 1004.52 1004.78 1005.21 1005.64 1005.94 1006.34 1006.75 1007.23 1007.58 1007.69 1007.75 1007.96 1008.20 1008.43 1008.73 1008.95 1009.05 1009.13 1008.90 1008.93 1008.63 1008.52 1008.55 1008.86 1009.05 1009.18 1009.47 1009.79 1010.31 1011.03
997.88 998.72 999.57 1000.14 1000.63 1001.13 1001.68 1002.23 1002.54 1003.08 1003.46 1003.67 1003.98 1004.35 1004.75 1005.20 1005.61 1005.75 1006.24 1006.59 1006.96 1007.13 1007.17 1007.27 1007.53 1007.68 1008.07 1008.36 1008.60 1008.60 1008.35 1008.39 1008.84 1008.90 1008.68 1008.91 1009.00 1009.23 1009.42 1009.61 1010.09 1010.57 1011.14
997.96 998.88 999.96 1000.57 1001.05 1001.36 1001.78 1002.31 1002.80 1003.15 1003.25 1003.51 1003.78 1004.37 1004.72 1005.28 1005.45 1005.79 1006.03 1006.28 1006.53 1006.94 1007.02 1007.12 1007.29 1007.53 1007.80 1008.02 1008.17 1007.95 1008.29 1008.49 1009.32 1009.73 1008.88 1009.07 1009.45 1009.46 1009.63 1009.73 1010.22 1010.82 1011.24
997.99 999.24 1000.19 1000.82 1001.27 1001.65 1002.12 1002.46 1002.96 1003.19 1003.37 1003.58 1003.93 1004.48 1004.91 1005.28 1005.56 1005.68 1005.77 1006.07 1006.41 1006.66 1006.80 1006.90 1006.98 1007.23 1007.49 1007.67 1007.67 1007.70 1007.79 1007.95 1008.66 1008.89 1008.39 1008.86 1009.41 1009.83 1009.72 1009.92 1010.35 1011.00 1011.50
Thickness
5824 5816 5808 5802 5794 5788 5784 5779 5772 5767 5763 5760 5757 5754 5750 5745 5741 5739 5737 5736 5733 5730 5728 5727 5727 5726 5726 5726 5728 5730 5731 5733 5734 5737 5740 5743 5745 5745 5746 5747 5746 5746 5744
5831 5814 5805 5799 5792 5785 5781 5776 5770 5762 5758 5753 5750 5747 5745 5741 5737 5733 5731 5729 5726 5725 5722 5721 5721 5720 5721 5722 5721 5723 5725 5727 5728 5730 5733 5738 5742 5742 5741 5742 5741 5742 5741
5825 5812 5801 5795 5789 5781 5776 5773 5767 5759 5754 5748 5747 5741 5737 5734 5729 5725 5724 5722 5720 5719 5718 5716 5715 5714 5714 5715 5716 5717 5719 5720 5723 5723 5729 5731 5737 5741 5740 5737 5736 5736 5736
5824 5810 5802 5792 5786 5779 5774 5771 5766 5759 5753 5745 5741 5736 5732 5728 5723 5720 5718 5717 5715 5713 5712 5713 5712 5710 5708 5709 5711 5711 5712 5714 5717 5718 5722 5728 5734 5740 5738 5736 5734 5733 5733
5822 5809 5801 5792 5786 5779 5773 5769 5763 5758 5753 5744 5737 5732 5728 5724 5719 5717 5713 5711 5710 5709 5708 5707 5708 5706 5704 5704 5705 5707 5708 5711 5712 5714 5718 5725 5731 5738 5735 5733 5733 5731 5729
5822 5812 5800 5792 5784 5777 5769 5764 5759 5754 5747 5740 5731 5727 5724 5722 5717 5713 5709 5706 5703 5702 5703 5703 5702 5701 5700 5700 5700 5702 5702 5703 5705 5710 5716 5722 5727 5730 5729 5727 5728 5728 5726
5819 5819 5801 5791 5782 5774 5767 5760 5755 5750 5743 5738 5729 5725 5723 5719 5714 5707 5703 5702 5697 5696 5695 5696 5696 5696 5695 5695 5695 5697 5697 5699 5701 5707 5714 5719 5722 5727 5725 5723 5723 5724 5723
5819 5813 5806 5791 5782 5772 5766 5759 5753 5750 5744 5739 5730 5725 5722 5718 5711 5705 5700 5697 5695 5693 5691 5689 5689 5688 5689 5690 5690 5691 5691 5693 5696 5701 5706 5713 5715 5721 5720 5718 5718 5719 5720
5828 5814 5808 5792 5780 5771 5764 5760 5755 5749 5744 5740 5732 5726 5723 5717 5710 5705 5699 5695 5693 5690 5688 5686 5684 5683 5682 5684 5684 5684 5685 5688 5689 5693 5699 5706 5709 5714 5715 5715 5714 5715 5717
5820 5813 5796 5800 5783 5770 5762 5758 5755 5751 5743 5738 5733 5728 5723 5715 5709 5706 5701 5696 5691 5688 5686 5684 5681 5679 5678 5678 5678 5679 5681 5683 5684 5689 5694 5699 5704 5708 5710 5711 5710 5711 5712
5832 5817 5802 5796 5797 5781 5765 5755 5750 5749 5743 5738 5731 5726 5721 5715 5711 5708 5706 5700 5694 5688 5684 5682 5679 5677 5676 5675 5675 5675 5677 5678 5679 5685 5691 5695 5698 5698 5700 5704 5708 5707 5710
5826 5829 5813 5800 5798 5792 5779 5763 5752 5748 5743 5738 5733 5728 5722 5716 5713 5708 5704 5699 5693 5688 5683 5681 5678 5675 5673 5672 5675 5675 5674 5674 5677 5684 5690 5693 5694 5694 5696 5700 5702 5704 5706
5825 5828 5822 5803 5800 5791 5784 5771 5760 5751 5745 5739 5733 5729 5725 5720 5714 5709 5703 5698 5693 5686 5681 5680 5676 5672 5672 5671 5673 5675 5673 5675 5678 5682 5687 5692 5691 5691 5693 5696 5698 5700 5701
5820 5822 5825 5807 5798 5794 5787 5775 5766 5755 5749 5743 5738 5733 5728 5723 5717 5708 5698 5695 5690 5686 5682 5678 5674 5673 5669 5670 5670 5671 5671 5674 5676 5678 5685 5687 5685 5689 5690 5690 5693 5695 5696
5813 5816 5816 5808 5797 5795 5786 5776 5765 5757 5751 5746 5741 5735 5732 5722 5712 5707 5699 5694 5690 5683 5679 5675 5673 5669 5666 5666 5665 5665 5665 5669 5672 5672 5674 5677 5678 5682 5685 5687 5688 5691 5692
5811 5812 5813 5807 5796 5793 5786 5775 5764 5757 5751 5745 5739 5732 5725 5717 5709 5703 5696 5691 5687 5681 5675 5671 5667 5663 5660 5660 5659 5660 5662 5664 5667 5667 5669 5671 5674 5676 5680 5681 5682 5686 5688
5807 5810 5808 5803 5794 5787 5781 5771 5762 5755 5750 5742 5734 5727 5721 5713 5704 5698 5691 5685 5681 5678 5672 5665 5660 5657 5655 5656 5656 5657 5659 5661 5662 5663 5664 5667 5668 5673 5676 5676 5679 5681 5685
5806 5807 5805 5801 5790 5783 5775 5766 5756 5752 5747 5737 5732 5724 5717 5710 5701 5693 5685 5680 5674 5672 5665 5659 5655 5652 5651 5650 5649 5652 5653 5653 5657 5658 5659 5663 5663 5669 5671 5673 5677 5680 5682
5807 5806 5800 5795 5783 5779 5770 5761 5753 5747 5742 5733 5726 5721 5714 5706 5697 5688 5681 5674 5670 5663 5658 5653 5648 5646 5643 5643 5644 5645 5646 5646 5650 5653 5654 5659 5662 5666 5668 5672 5674 5675 5679
5807 5801 5795 5789 5780 5773 5764 5754 5748 5741 5734 5729 5721 5716 5709 5702 5694 5686 5678 5670 5663 5656 5650 5644 5640 5640 5638 5636 5637 5637 5637 5639 5643 5648 5652 5655 5660 5665 5668 5672 5670 5671 5674
5795 5790 5786 5781 5774 5765 5756 5745 5736 5730 5725 5719 5717 5712 5706 5697 5688 5681 5671 5663 5656 5649 5645 5640 5634 5632 5629 5630 5628 5626 5630 5634 5637 5644 5650 5655 5658 5662 5666 5665 5665 5666 5671
5782 5779 5775 5771 5766 5759 5751 5742 5735 5728 5721 5716 5712 5707 5702 5693 5683 5675 5666 5657 5649 5642 5637 5633 5630 5627 5624 5624 5620 5619 5619 5625 5632 5640 5647 5653 5657 5660 5662 5665 5662 5667 5669
5769 5767 5765 5762 5758 5751 5745 5737 5731 5725 5719 5711 5706 5699 5697 5688 5678 5671 5662 5653 5644 5636 5633 5631 5628 5626 5623 5622 5622 5619 5616 5619 5626 5636 5642 5647 5649 5653 5656 5657 5658 5660 5661
5763 5762 5758 5754 5749 5744 5739 5731 5723 5714 5705 5705 5699 5694 5688 5683 5674 5667 5657 5650 5641 5637 5634 5631 5628 5626 5623 5619 5620 5622 5626 5628 5621 5621 5634 5637 5641 5644 5648 5650 5652 5653 5655
5760 5756 5750 5745 5740 5737 5732 5724 5716 5709 5707 5703 5696 5687 5680 5674 5668 5661 5655 5649 5643 5637 5633 5629 5627 5624 5622 5620 5619 5621 5620 5622 5614 5609 5623 5627 5631 5639 5642 5646 5648 5647 5650
5756 5749 5743 5737 5734 5730 5724 5718 5710 5704 5700 5695 5689 5679 5673 5667 5661 5657 5654 5648 5643 5638 5634 5631 5630 5628 5624 5622 5623 5623 5623 5621 5614 5617 5628 5627 5625 5630 5637 5642 5642 5643 5644